Location: Newark
(47.5783°N, 6.7622°E)
Time: 02:14:47
(UTC+00:00)

Vanguard 2 Rocket - All Passes

Search period start: 23 February 2020 00:00
Search period end: 04 March 2020 00:00
Orbit: 554 x 3327 km, 32.9° (Epoch: 22 February)

Date Brightness Start Highest point End Pass type
(mag) Time Alt. Az. Time Alt. Az. Time Alt. Az.
23 Feb - 01:03:23 10° WSW 01:06:22 12° SW 01:08:55 10° SSW night (unlit)
23 Feb - 17:10:42 10° SSW 17:25:06 26° SSE 17:36:40 10° ESE visible
23 Feb - 19:24:09 10° SW 19:40:20 39° S 19:51:09 10° ESE visible
23 Feb - 21:41:13 10° WSW 21:54:48 38° SSW 22:03:11 10° SE visible
23 Feb - 23:59:50 10° WSW 00:07:22 20° SW 00:12:43 10° S visible
24 Feb - 16:11:31 10° S 16:24:15 21° SE 16:35:21 10° ESE daylight
24 Feb - 18:22:48 10° SW 18:39:28 37° SSE 18:51:30 10° ESE visible
24 Feb - 20:39:00 10° WSW 20:54:33 42° S 21:04:21 10° ESE visible
24 Feb - 22:57:13 10° W 23:08:02 29° SSW 23:15:04 10° SSE visible
25 Feb - 15:14:00 10° SSE 15:23:30 15° SE 15:32:26 10° ESE daylight
25 Feb - 17:22:02 10° SSW 17:38:26 33° SSE 17:51:23 10° E visible
25 Feb - 19:36:58 10° WSW 19:53:56 44° S 20:05:11 10° ESE visible
25 Feb - 21:54:43 10° WSW 22:08:17 36° SSW 22:16:48 10° SE visible
26 Feb - 00:14:37 10° WSW 00:20:27 15° SW 00:24:59 10° S visible
26 Feb - 16:22:02 10° SSW 16:37:23 28° SSE 16:50:38 10° E daylight
26 Feb - 18:35:17 10° SW 18:52:58 43° S 19:05:39 10° ESE visible
26 Feb - 20:52:19 10° WSW 21:08:06 42° SSW 21:18:07 10° SE visible
26 Feb - 23:11:15 10° W 23:21:14 24° SW 23:28:04 10° SSE visible
27 Feb - 15:23:03 10° S 15:36:27 23° SE 15:48:58 10° E daylight
27 Feb - 17:34:07 10° SW 17:51:48 40° SSE 18:05:41 10° E visible
27 Feb - 19:50:05 10° WSW 20:07:29 46° S 20:19:03 10° ESE visible
27 Feb - 22:08:26 10° W 22:21:36 33° SSW 22:30:11 10° SSE visible
28 Feb - 00:31:41 10° WSW 00:33:19 10° SW 00:34:50 10° SW visible
28 Feb - 14:25:39 10° SSE 14:35:44 16° SE 14:45:45 10° ESE daylight
28 Feb - 16:33:38 10° SSW 16:50:34 36° SSE 17:05:11 10° E daylight
28 Feb - 18:48:11 10° WSW 19:06:28 47° S 19:19:36 10° ESE visible
28 Feb - 21:05:49 10° W 21:21:31 40° SSW 21:31:42 10° SE visible
28 Feb - 23:25:47 10° W 23:34:12 19° SW 23:40:27 10° S visible
29 Feb - 15:33:56 10° SSW 15:49:24 30° SSE 16:04:01 10° E daylight
29 Feb - 17:46:45 10° SW 18:05:12 45° SSE 18:19:43 10° ESE visible
29 Feb - 20:03:26 10° WSW 20:20:57 45° SSW 20:32:46 10° SE visible
29 Feb - 22:22:24 10° W 22:34:43 28° SW 22:43:09 10° SSE visible
01 Mar - 14:35:14 10° S 14:48:30 24° SE 15:01:56 10° E daylight
01 Mar - 16:45:55 10° SW 17:03:47 42° SSE 17:19:21 10° E daylight
01 Mar - 19:01:23 10° WSW 19:19:56 48° S 19:33:24 10° ESE visible
01 Mar - 21:19:31 10° W 21:34:45 36° SSW 21:45:00 10° SSE visible
01 Mar - 23:41:29 10° WSW 23:46:58 13° SW 23:51:33 10° SSW visible
02 Mar - 13:38:05 10° SSE 13:47:55 17° SE 13:58:16 10° ESE daylight
02 Mar - 15:45:47 10° SSW 16:02:26 37° SSE 16:18:27 10° E daylight
02 Mar - 17:59:46 10° WSW 18:18:36 49° S 18:33:35 10° ESE visible
02 Mar - 20:16:58 10° W 20:34:17 43° SSW 20:46:16 10° SE visible
02 Mar - 22:36:48 10° W 22:47:37 22° SW 22:55:32 10° S visible
03 Mar - 14:46:26 10° SSW 15:01:18 31° SE 15:16:50 10° E daylight
03 Mar - 16:58:42 10° SW 17:17:04 47° SSE 17:33:19 10° ESE daylight
03 Mar - 19:14:48 10° WSW 19:33:20 48° S 19:47:02 10° ESE visible
03 Mar - 21:33:27 10° W 21:47:48 30° SW 21:57:54 10° SSE visible
